Notices

What's New in latest Release from April 7th, 2021:

- Updated Glossary, including Speed of Maximum Gust, and Total Hourly Precipitation

- Updated national and regional climate services offices contacts and prices information

- Addition of station inventory lists for 1981-2010, 1971-2000, and 1961-1990 Normals.

If you haven't already, please take our survey and provide feedback about our website: https://eccc.sondage-survey.ca/f/LanguageSelection.aspx?s=442ca660-fcf1-47c0-95a9-59707d6fd709

Hourly Data Report for February 21, 2017

TORONTO CITY
ONTARIO

43°40'00.000" N
79°24'00.000" W
112.50 m
6158355
71508
XTO

Download Data

Hourly Data (February 2017)
Hourly Data Report for February 21, 2017
TIME
LST
Temp Definition
°C
Dew Point Definition
°C
Rel Hum Definition
%
Precip. Amount Definition
mm

Wind Dir Definition
10's deg

Wind Spd Definition
km/h
Visibility Definition
km
Stn Press Definition
kPa
Hmdx Definition


Wind Chill Definition


Weather Definition


00:00 1.9 -6.0 56 0.0 LegendMM LegendMM   101.08     LegendNANA
01:00 1.7 -5.9 57 0.0 LegendMM LegendMM   101.02     LegendNANA
02:00 1.8 -5.9 57 0.0 LegendMM LegendMM   100.95     LegendNANA
03:00 1.8 -6.0 56 0.0 LegendMM LegendMM   100.83     LegendNANA
04:00 1.9 -5.4 59 0.0 LegendMM LegendMM   100.71     LegendNANA
05:00 2.0 -4.3 63 0.0 LegendMM LegendMM   100.65     LegendNANA
06:00 2.3 -3.4 66 0.0 LegendMM LegendMM   100.59     LegendNANA
07:00 2.2 -2.5 71 0.0 LegendMM LegendMM   100.46     LegendNANA
08:00 2.3 -2.4 71 0.0 LegendMM LegendMM   100.44     LegendNANA
09:00 3.2 -2.0 69 0.0 LegendMM LegendMM   100.40     LegendNANA
10:00 3.8 -1.8 67 0.0 LegendMM LegendMM   100.29     LegendNANA
11:00 4.1 -1.6 66 0.0 LegendMM LegendMM   100.22     LegendNANA
12:00 4.8 -1.4 64 0.0 LegendMM LegendMM   100.20     LegendNANA
13:00 6.1 -1.4 59 0.0 LegendMM LegendMM   100.10     LegendNANA
14:00 7.6 -1.2 54 0.0 LegendMM LegendMM   100.02     LegendNANA
15:00 5.8 -0.2 65 0.5 LegendMM LegendMM   100.04     LegendNANA
16:00 4.3 2.8 90 1.4 LegendMM LegendMM   99.93     LegendNANA
17:00 4.5 2.5 87 0.2 LegendMM LegendMM   100.03     LegendNANA
18:00 5.0 1.5 78 0.0 LegendMM LegendMM   100.02     LegendNANA
19:00 4.9 2.3 83 0.0 LegendMM LegendMM   99.99     LegendNANA
20:00 5.1 2.4 83 0.0 LegendMM LegendMM   100.03     LegendNANA
21:00 5.1 1.5 78 0.0 LegendMM LegendMM   100.06     LegendNANA
22:00 4.9 1.9 81 0.0 LegendMM LegendMM   100.04     LegendNANA
23:00 4.4 2.2 85 0.0 LegendMM LegendMM   100.04     LegendNANA

Notes on Data Quality.

Legend

  • E = Estimated
  • M = Missing
  • NA = Not Available*
  • [empty] = Indicates an unobserved value
Date modified: